[[{"header":{"parameterUnit":"m.s-1","parameterCategory":1,"la1":30.2991,"la2":30.254,"lo1":-89.0895,"lo2":-89.0444,"dy":0.0017,"dx":0.0017,"nx":28,"ny":28,"refTime":"2025-09-15T03:00:00:Z","depth":0,"parameterNumber":2,"parameterNumberName":"U-component_of_WINDS"},"data":[0,0,0,0,0,0,0,0,0,0,0,0,0,0,0,0,0,0,0,0,0,0,0,0,0,0,0,0,0,0,0,0,0,0,0,0,0,0,0,0,0,0,0,0,0,0,0,0,0,0,0,0,0,0,0,0,0,0,-0.6241,-0.6241,0,-0.6217,-0.6217,-0.6217,-0.6176,-0.6176,-0.6175,-0.6174,-0.6149,-0.6149,-0.615,0,0,0,0,0,0,0,0,0,0,0,0,0,-0.6254,-0.6254,-0.6241,-0.6241,-0.6241,-0.6217,-0.6217,-0.6216,-0.6176,-0.6176,-0.6175,-0.6174,-0.6149,-0.6149,-0.615,0,0,0,0,0,0,0,0,0,0,0,0,0,-0.6241,-0.6254,-0.6242,-0.6218,-0.6216,-0.6217,-0.6217,-0.6216,-0.6177,-0.6175,-0.6174,-0.6173,-0.6149,-0.6149,-0.615,-0.6172,0,0,-0.615,-0.615,0,0,0,0,0,0,0,0,-0.6242,-0.6241,-0.6222,-0.622,-0.6217,-0.6199,-0.6212,-0.6202,-0.6177,-0.6191,-0.6174,-0.6173,-0.6167,-0.6165,-0.6163,-0.6171,-0.617,-0.615,-0.615,-0.615,-0.615,0,0,0,0,0,0,0,-0.6243,-0.6242,-0.6232,-0.6222,-0.6219,-0.6209,-0.6206,-0.621,-0.6186,-0.619,-0.6187,-0.6185,-0.6165,-0.6163,-0.6162,-0.617,-0.615,-0.615,-0.615,-0.615,-0.6196,-0.6197,0,0,0,0,0,0,-0.6247,-0.6243,-0.6233,-0.6231,-0.6227,-0.621,-0.6206,-0.6206,-0.6185,-0.6181,-0.6186,-0.6183,-0.6164,-0.6162,-0.6161,-0.6187,-0.615,-0.615,-0.615,-0.6195,-0.6196,-0.6198,0,0,0,0,0,0,-0.6248,-0.6247,-0.6234,-0.6236,-0.6234,-0.6211,-0.621,-0.6206,-0.6204,-0.6182,-0.6178,-0.6188,-0.6163,-0.6161,-0.617,-0.6186,-0.615,-0.615,-0.6193,-0.6195,-0.6197,-0.6239,0,0,0,0,0,0,-0.6248,-0.6247,-0.6255,-0.6236,-0.6234,-0.6243,-0.6211,-0.6206,-0.6204,-0.62,-0.6183,-0.6179,-0.6162,-0.617,-0.617,-0.6185,-0.615,-0.6192,-0.6194,-0.6196,-0.6236,-0.6242,-0.6247,0,0,0,0,0,-0.6249,-0.6268,-0.6256,-0.6255,-0.6243,-0.6244,-0.6242,-0.6221,-0.6205,-0.6214,-0.62,-0.618,-0.6184,-0.6171,-0.6171,-0.6186,-0.6191,-0.6194,-0.6196,-0.6234,-0.6241,-0.6247,0,0,0,0,0,0,-0.6289,-0.6265,-0.6251,-0.6265,-0.6257,-0.6237,-0.6246,-0.6229,-0.6225,-0.6222,-0.6196,-0.6193,-0.6205,-0.6197,-0.6183,-0.6208,-0.6184,-0.6187,-0.6213,-0.622,-0.6225,-0.6227,-0.615,0,0,0,0,0,-0.63,-0.6302,-0.628,-0.6295,-0.6291,-0.627,-0.6269,-0.6254,-0.6244,-0.624,-0.6227,-0.6219,-0.6218,-0.6218,-0.6217,-0.6235,-0.6231,-0.6245,-0.6251,-0.6255,-0.6258,-0.6268,-0.6275,-0.6206,-0.6206,-0.6206,0,0,-0.6321,-0.6308,-0.6311,-0.6302,-0.6294,-0.6297,-0.6267,-0.6271,-0.6274,-0.6241,-0.6249,-0.6239,-0.6228,-0.6242,-0.6247,-0.6235,-0.6276,-0.6259,-0.6263,-0.6263,-0.6272,-0.6278,-0.6284,-0.6208,-0.6208,-0.6208,0,0,-0.6363,-0.6353,-0.6364,-0.6356,-0.6344,-0.633,-0.6333,-0.6316,-0.6308,-0.6315,-0.6291,-0.6294,-0.6293,-0.6286,-0.6283,-0.6323,-0.6305,-0.6323,-0.6352,-0.6362,-0.6367,-0.6372,-0.6387,-0.6392,-0.6326,-0.6326,-0.6326,0,-0.6391,-0.6395,-0.6372,-0.6378,-0.6375,-0.6346,-0.6357,-0.6351,-0.6339,-0.6338,-0.6325,-0.6324,-0.6314,-0.6327,-0.6337,-0.6334,-0.6337,-0.6325,-0.6368,-0.6373,-0.6377,-0.6391,-0.6396,-0.6328,-0.6328,-0.6327,-0.6327,0,-0.6431,-0.6434,-0.6444,-0.6434,-0.6432,-0.6441,-0.642,-0.6421,-0.6406,-0.6393,-0.6402,-0.6389,-0.6385,-0.6387,-0.6372,-0.6397,-0.639,-0.6373,-0.6349,-0.6386,-0.6399,-0.6404,-0.6331,-0.6331,-0.633,-0.6329,0,0,-0.6497,-0.6474,-0.6479,-0.6474,-0.6459,-0.6461,-0.6468,-0.6464,-0.6466,-0.6459,-0.6465,-0.6466,-0.645,-0.6446,-0.643,-0.6439,-0.6473,-0.642,-0.642,-0.6431,-0.6501,-0.6515,-0.6521,-0.646,-0.6461,-0.6462,-0.6502,0,-0.6536,-0.6548,-0.6528,-0.6545,-0.6548,-0.652,-0.6527,-0.6519,-0.6507,-0.6508,-0.6495,-0.6497,-0.6475,-0.6473,-0.648,-0.6467,-0.6486,-0.6464,-0.6467,-0.6467,-0.6471,-0.6528,-0.6543,-0.6581,-0.6507,-0.6508,-0.6508,0,-0.6583,-0.6579,-0.6596,-0.658,-0.6581,-0.6587,-0.6582,-0.6583,-0.6574,-0.6565,-0.6561,-0.6543,-0.655,-0.6526,-0.6536,-0.6521,-0.6521,-0.6515,-0.6516,-0.6516,-0.6491,-0.6531,-0.6593,-0.6599,-0.6516,-0.6515,-0.6515,0,-0.6631,-0.6629,-0.6639,-0.6636,-0.6618,-0.6623,-0.6616,-0.6605,-0.6604,-0.66,-0.6599,-0.6596,-0.6594,-0.6592,-0.6574,-0.6558,-0.6586,-0.6561,-0.658,-0.658,-0.6587,-0.6587,-0.6652,-0.6586,-0.6586,-0.6586,-0.6586,0,-0.6677,-0.6689,-0.6661,-0.6667,-0.668,-0.6657,-0.667,-0.666,-0.6651,-0.6655,-0.6631,-0.6636,-0.661,-0.6613,-0.6598,-0.6609,-0.6608,-0.6602,-0.6598,-0.6605,-0.6606,-0.6605,-0.6602,-0.6587,-0.6587,-0.6587,-0.6587,0,-0.6733,-0.6715,-0.6724,-0.6706,-0.6702,-0.6713,-0.6697,-0.6703,-0.669,-0.6696,-0.6696,-0.6676,-0.6677,-0.6658,-0.6656,-0.6646,-0.6664,-0.6655,-0.6667,-0.6665,-0.6685,-0.6684,-0.6752,-0.676,-0.6689,-0.6689,-0.669,0,-0.6764,-0.6773,-0.6756,-0.6757,-0.6751,-0.6753,-0.6752,-0.673,-0.673,-0.672,-0.6727,-0.6726,-0.6725,-0.6728,-0.6714,-0.6712,-0.6703,-0.6727,-0.6703,-0.671,-0.6705,-0.6705,-0.6706,-0.6733,-0.6734,-0.6734,-0.6735,0,-0.6822,-0.6813,-0.6812,-0.6808,-0.6808,-0.6804,-0.6799,-0.6801,-0.6777,-0.6778,-0.6779,-0.6778,-0.6776,-0.6776,-0.6771,-0.6764,-0.6746,-0.6743,-0.6747,-0.6754,-0.6762,-0.6759,-0.6682,-0.6741,-0.6741,-0.674,-0.674,-0.674,-0.6867,-0.6874,-0.6863,-0.6864,-0.6857,-0.6853,-0.6858,-0.6845,-0.6846,-0.6842,-0.6829,-0.6833,-0.6823,-0.6815,-0.681,-0.6813,-0.6801,-0.6808,-0.6809,-0.6811,-0.6816,-0.6761,-0.6812,-0.6812,-0.6812,-0.6811,-0.6811,0,-0.6925,-0.6917,-0.6917,-0.691,-0.6911,-0.6893,-0.6886,-0.6888,-0.6892,-0.6884,-0.6883,-0.6885,-0.6885,-0.6871,-0.6869,-0.6874,-0.6866,-0.6875,-0.6875,-0.6874,-0.6826,-0.6822,-0.6882,-0.6882,-0.6882,-0.6882,-0.6882,-0.6882,-0.6955,-0.6966,-0.6955,-0.6962,-0.6954,-0.6957,-0.6955,-0.6951,-0.6946,-0.6949,-0.6949,-0.6939,-0.6929,-0.6927,-0.6926,-0.6922,-0.6923,-0.6935,-0.6928,-0.6884,-0.6877,-0.687,-0.6867,-0.6935,-0.6935,-0.6976,-0.6976,-0.6976]},{"header":{"parameterUnit":"m.s-1","parameterCategory":1,"la1":30.2991,"la2":30.254,"lo1":-89.0895,"lo2":-89.0444,"dy":0.0017,"dx":0.0017,"nx":28,"ny":28,"refTime":"2025-09-15T03:00:00:Z","depth":0,"parameterNumber":3,"parameterNumberName":"V-component_of_WINDS"},"data":[0,0,0,0,0,0,0,0,0,0,0,0,0,0,0,0,0,0,0,0,0,0,0,0,0,0,0,0,0,0,0,0,0,0,0,0,0,0,0,0,0,0,0,0,0,0,0,0,0,0,0,0,0,0,0,0,0,0,3.0085,3.0084,0,3.0044,3.0044,3.0043,3.0012,3.0012,3.0012,3.0012,2.9966,2.9966,2.9965,0,0,0,0,0,0,0,0,0,0,0,0,0,3.0131,3.0131,3.0085,3.0084,3.0084,3.0044,3.0044,3.0043,3.0012,3.0012,3.0012,3.0011,2.9967,2.9966,2.9965,0,0,0,0,0,0,0,0,0,0,0,0,0,3.0103,3.013,3.0085,3.0064,3.0061,3.0045,3.0044,3.0043,3.0013,3.0012,3.0012,3.0011,2.9967,2.9966,2.9964,2.9964,0,0,2.996,2.9959,0,0,0,0,0,0,0,0,3.0105,3.0101,3.0067,3.0065,3.0062,3.0033,3.0044,3.0016,3.0013,3.0031,3.0012,3.0011,2.9989,2.9986,2.9979,2.9962,2.996,2.996,2.9959,2.9959,2.9958,0,0,0,0,0,0,0,3.0107,3.0103,3.0068,3.0067,3.0064,3.0055,3.0051,3.0038,3.0013,3.0029,3.0027,3.0023,2.9987,2.998,2.9977,2.9959,2.996,2.9959,2.9958,2.9957,2.994,2.994,0,0,0,0,0,0,3.0112,3.0105,3.007,3.0067,3.0083,3.0055,3.005,3.0043,3.0013,3.0008,3.0023,3.0022,2.9983,2.9979,2.9976,2.9973,2.9959,2.9957,2.9956,2.9939,2.994,2.994,0,0,0,0,0,0,3.0114,3.011,3.0071,3.0085,3.008,3.0054,3.0047,3.0042,3.0035,3.0008,3.0003,3.0021,2.9982,2.9978,2.9967,2.9971,2.9957,2.9955,2.9939,2.9939,2.994,2.9968,0,0,0,0,0,0,3.0115,3.011,3.0111,3.0086,3.0079,3.0065,3.0047,3.0042,3.0033,3.0031,3.0005,3.0,2.9982,2.997,2.9966,2.9969,2.9954,2.9938,2.9939,2.994,2.9966,2.9969,2.9971,0,0,0,0,0,3.0117,3.0119,3.0111,3.0107,3.0079,3.0065,3.0061,3.0042,3.0034,3.0033,3.0016,3.0001,2.9971,2.9969,2.9964,2.9967,2.9938,2.9939,2.994,2.9965,2.9969,2.9971,0,0,0,0,0,0,3.0144,3.0116,3.0106,3.0101,3.0086,3.006,3.0059,3.0046,3.0032,3.003,3.0005,2.9999,2.9991,2.9978,2.9976,2.9965,2.9953,2.9953,2.9973,2.9977,2.9979,2.9982,2.9953,0,0,0,0,0,3.015,3.0141,3.0117,3.0114,3.0108,3.0085,3.0078,3.0064,3.0047,3.004,3.0022,3.0005,2.9992,2.9983,2.997,2.9965,2.9958,2.9964,2.9967,2.9969,2.9969,2.9964,2.9966,2.9943,2.9943,2.9943,0,0,3.016,3.0144,3.014,3.0119,3.0106,3.0097,3.0079,3.0071,3.0063,3.0038,3.0027,3.0014,2.9993,2.9985,2.9981,2.9974,2.9974,2.997,2.9972,2.997,2.9965,2.9968,2.997,2.9943,2.9943,2.9943,0,0,3.0176,3.0163,3.0159,3.0147,3.0128,3.0113,3.0112,3.0088,3.0079,3.0068,3.0049,3.0039,3.0017,3.0003,2.9993,3.0004,2.9989,3.0,3.0013,3.0009,3.0011,3.0012,3.0015,3.0017,3.0,3.0,3.0,0,3.0191,3.0178,3.0159,3.0152,3.0143,3.0121,3.0117,3.0105,3.0082,3.0075,3.0069,3.0041,3.0025,3.0014,3.0016,3.0009,3.0007,3.0002,3.0013,3.0014,3.0015,3.0017,3.0019,3.0002,3.0002,3.0002,3.0001,0,3.0198,3.0189,3.0189,3.0168,3.0159,3.0153,3.0132,3.0125,3.0112,3.0098,3.0087,3.0068,3.005,3.0046,3.0033,3.0032,3.0028,3.0018,3.0005,3.0019,3.0021,3.0022,3.0004,3.0003,3.0003,3.0003,0,0,3.0228,3.0198,3.0198,3.0188,3.0166,3.0158,3.0151,3.0135,3.0129,3.0114,3.0107,3.0089,3.0079,3.0068,3.0053,3.0049,3.0058,3.0038,3.0037,3.0042,3.0055,3.0063,3.0064,3.0048,3.0049,3.0049,3.0057,0,3.0239,3.0227,3.0209,3.0202,3.0193,3.0172,3.0166,3.0151,3.0137,3.0127,3.0111,3.0099,3.0087,3.008,3.0075,3.0058,3.006,3.0057,3.004,3.0039,3.0045,3.0066,3.0074,3.0082,3.0057,3.0057,3.0057,0,3.025,3.0238,3.023,3.0208,3.0204,3.0198,3.0182,3.0173,3.0155,3.0145,3.0133,3.0117,3.0108,3.0097,3.0083,3.0081,3.0073,3.0063,3.0063,3.006,3.0049,3.0062,3.0084,3.0085,3.0059,3.0058,3.0058,0,3.0272,3.0253,3.0246,3.0238,3.0213,3.021,3.0199,3.0181,3.0172,3.0158,3.0152,3.0136,3.0127,3.0114,3.0094,3.0089,3.0082,3.007,3.0072,3.0072,3.007,3.0071,3.0091,3.0067,3.0067,3.0067,3.0067,0,3.0286,3.0281,3.0255,3.0251,3.0245,3.0225,3.0219,3.0206,3.0191,3.0182,3.0163,3.0156,3.013,3.0119,3.0103,3.0093,3.009,3.008,3.0076,3.0082,3.0083,3.0075,3.0074,3.0067,3.0067,3.0067,3.0067,0,3.0308,3.0291,3.0282,3.0259,3.0253,3.025,3.023,3.0224,3.021,3.0199,3.0196,3.0173,3.0159,3.0138,3.0117,3.0107,3.0099,3.0092,3.0105,3.0102,3.0106,3.0105,3.0121,3.0122,3.0099,3.0099,3.0099,0,3.0318,3.0314,3.0292,3.0285,3.0276,3.0266,3.0257,3.0237,3.0229,3.0209,3.0205,3.019,3.0177,3.0155,3.0136,3.012,3.0112,3.0119,3.0109,3.0115,3.0111,3.0111,3.011,3.012,3.0121,3.0121,3.0121,0,3.0336,3.0328,3.0317,3.0303,3.0294,3.0282,3.0269,3.0264,3.0241,3.0232,3.0219,3.0209,3.0189,3.0173,3.0155,3.0142,3.0127,3.0125,3.0124,3.0129,3.0137,3.0132,3.011,3.0124,3.0124,3.0124,3.0124,3.0123,3.0351,3.0347,3.0331,3.0319,3.0308,3.0296,3.029,3.0275,3.0264,3.0247,3.0235,3.0222,3.0204,3.0178,3.0166,3.0154,3.0148,3.0148,3.0147,3.0147,3.0149,3.014,3.0151,3.0151,3.0151,3.0151,3.015,0,3.0368,3.0357,3.0346,3.0329,3.032,3.0309,3.0294,3.0286,3.0276,3.0261,3.0249,3.0233,3.0218,3.0198,3.0181,3.0176,3.0169,3.0172,3.0172,3.0169,3.0156,3.0157,3.0178,3.0178,3.0178,3.0178,3.0178,3.0178,3.0375,3.0367,3.0357,3.0343,3.0332,3.032,3.0312,3.0301,3.0289,3.0272,3.0261,3.0248,3.0231,3.0213,3.0199,3.0193,3.0187,3.0193,3.0185,3.0173,3.017,3.0168,3.0169,3.0192,3.0192,3.0199,3.0199,3.0199]}]]